Change the Weather History Date:

Sunday, May 19, 2013

  Actual Average Record
Temperature  
Mean Temperature 73 °F 67 °F  
Max Temperature 78 °F 76 °F 96 °F (1880)
Min Temperature 68 °F 59 °F 46 °F (1875)
Degree Days  
Heating Degree Days 0 2  
Month to date heating degree days 58 57  
Since 1 July heating degree days 3257 3357  
Cooling Degree Days 8 4  
Month to date cooling degree days 63 56  
Year to date cooling degree days 129 100  
Growing Degree Days 22 (Base 50)    
Moisture  
Dew Point 66 °F    
Average Humidity 79    
Maximum Humidity 93    
Minimum Humidity 64    
Precipitation  
Precipitation T in 0.10 in 1.69 in (1902)
Month to date precipitation 2.52 1.98  
Year to date precipitation 15.79 15.59  
Snow  
Snow 0.00 in 0.00 in 0.00 in (2002)
Month to date snowfall 0.0 0.0  
Since 1 July snowfall 1.8 5.8  
Snow Depth 0.00 in    
Sea Level Pressure  
Sea Level Pressure 30.14 in    
Wind  
Wind Speed 7 mph (South)    
Max Wind Speed 13 mph    
Max Gust Speed 16 mph    
Visibility 9 miles    
Events      
T = Trace of Precipitation, MM = Missing Value Source: NWS Daily Summary

Daily Weather History Graph

Daily Weather History Graph

Search for Another Location

Airport or City:

Trip Planner

Search our weather history database for the weather conditions in past years. The results will help you decide how hot, cold, wet, or windy it might be!

Date:

Astronomy

May. 19, 2013 Rise Set
Actual Time 5:53 AM EDT 8:09 PM EDT
Civil Twilight 5:24 AM EDT 8:38 PM EDT
Nautical Twilight 4:48 AM EDT 9:14 PM EDT
Astronomical Twilight 4:09 AM EDT 9:53 PM EDT
Moon 2:19 PM EDT (5/19) 2:07 AM EDT (5/19)
Length of Visible Light 15h 14m
Length of Day
14h 15m
Waxing Gibbous, 65% of the Moon is Illuminated
May 19
Waxing Gibbous
May 25
Full
May 31
Last Quarter
Jun 8
New
Jun 16
First Quarter

Hourly Weather History & Observations

Time (EDT) Temp. Dew Point Humidity Pressure Visibility Wind Dir Wind Speed Gust Speed Precip Events Conditions
12:21 AM 68.0 °F 66.2 °F 94% 30.16 in 10.0 mi South 3.5 mph - N/A   Overcast
12:33 AM 68.0 °F 66.2 °F 94% 30.16 in 10.0 mi South 3.5 mph - N/A   Overcast
12:51 AM 68.0 °F 66.0 °F 93% 30.16 in 10.0 mi SSE 3.5 mph - N/A   Overcast
1:11 AM 69.8 °F 66.2 °F 88% 30.15 in 10.0 mi Calm Calm - N/A   Overcast
1:20 AM 69.8 °F 66.2 °F 88% 30.15 in 10.0 mi Calm Calm - N/A   Overcast
1:51 AM 68.0 °F 66.0 °F 93% 30.14 in 10.0 mi Calm Calm - N/A   Overcast
1:59 AM 68.0 °F 66.2 °F 94% 30.14 in 9.0 mi SSW 3.5 mph - N/A   Overcast
2:07 AM 68.0 °F 66.2 °F 94% 30.15 in 9.0 mi Calm Calm - N/A   Overcast
2:17 AM 68.0 °F 66.2 °F 94% 30.14 in 10.0 mi Calm Calm - N/A   Overcast
2:51 AM 68.0 °F 66.0 °F 93% 30.13 in 10.0 mi South 3.5 mph - N/A   Overcast
3:14 AM 68.0 °F 66.2 °F 94% 30.13 in 9.0 mi South 3.5 mph - N/A   Overcast
3:46 AM 68.0 °F 66.2 °F 94% 30.14 in 10.0 mi South 3.5 mph - N/A   Overcast
3:51 AM 68.0 °F 66.2 °F 94% 30.14 in 10.0 mi South 3.5 mph - N/A   Overcast
4:11 AM 68.0 °F 66.2 °F 94% 30.14 in 8.0 mi South 3.5 mph - N/A   Scattered Clouds
4:29 AM 68.0 °F 66.2 °F 94% 30.13 in 8.0 mi South 4.6 mph - N/A   Mostly Cloudy
4:40 AM 68.0 °F 66.2 °F 94% 30.13 in 7.0 mi South 3.5 mph - N/A   Mostly Cloudy
4:51 AM 68.0 °F 66.0 °F 93% 30.13 in 7.0 mi South 5.8 mph - N/A   Overcast
5:00 AM 68.0 °F 66.2 °F 94% 30.13 in 7.0 mi SSW 5.8 mph - N/A   Overcast
5:51 AM 68.0 °F 66.0 °F 93% 30.14 in 7.0 mi SSW 5.8 mph - N/A   Overcast
6:51 AM 68.0 °F 66.0 °F 93% 30.15 in 5.0 mi SSW 5.8 mph - N/A   Overcast
7:15 AM 69.8 °F 66.2 °F 88% 30.15 in 6.0 mi SW 8.1 mph - N/A   Overcast
7:51 AM 69.1 °F 66.9 °F 93% 30.16 in 6.0 mi SSW 8.1 mph - N/A   Mostly Cloudy
7:58 AM 69.8 °F 66.2 °F 88% 30.16 in 6.0 mi SSW 6.9 mph - N/A   Scattered Clouds
8:14 AM 71.6 °F 66.2 °F 83% 30.16 in 6.0 mi SW 8.1 mph - N/A   Mostly Cloudy
8:29 AM 71.6 °F 66.2 °F 83% 30.17 in 7.0 mi SSW 8.1 mph - N/A   Overcast
8:51 AM 71.1 °F 66.0 °F 84% 30.18 in 7.0 mi SW 5.8 mph - N/A   Overcast
9:02 AM 71.6 °F 66.2 °F 83% 30.18 in 7.0 mi SW 6.9 mph - N/A   Scattered Clouds
9:51 AM 73.0 °F 66.0 °F 79% 30.18 in 10.0 mi SW 5.8 mph - N/A   Partly Cloudy
10:51 AM 77.0 °F 66.0 °F 69% 30.18 in 10.0 mi Variable 4.6 mph - N/A   Scattered Clouds
11:03 AM 75.2 °F 66.2 °F 73% 30.18 in 10.0 mi North 4.6 mph - N/A   Mostly Cloudy
11:51 AM 73.9 °F 66.9 °F 79% 30.18 in 10.0 mi NE 6.9 mph - N/A   Scattered Clouds
12:51 PM 73.0 °F 66.9 °F 81% 30.17 in 10.0 mi NE 8.1 mph - N/A   Clear
1:51 PM 75.9 °F 66.9 °F 74% 30.15 in 10.0 mi ENE 9.2 mph - N/A   Mostly Cloudy
2:51 PM 73.9 °F 64.0 °F 71% 30.13 in 10.0 mi SE 8.1 mph - N/A   Mostly Cloudy
2:58 PM 73.4 °F 64.4 °F 73% 30.13 in 10.0 mi ESE 3.5 mph - N/A   Overcast
3:51 PM 75.0 °F 63.0 °F 66% 30.11 in 10.0 mi SE 8.1 mph - 0.00 in   Partly Cloudy
4:51 PM 77.0 °F 66.9 °F 71% 30.10 in 10.0 mi SE 10.4 mph - N/A   Clear
5:51 PM 75.9 °F 66.9 °F 74% 30.10 in 10.0 mi SE 9.2 mph - N/A   Clear
6:51 PM 75.0 °F 64.9 °F 71% 30.10 in 10.0 mi SSE 11.5 mph - N/A   Clear
7:51 PM 73.9 °F 66.0 °F 76% 30.11 in 10.0 mi SSE 6.9 mph - N/A   Clear
8:51 PM 73.0 °F 66.0 °F 79% 30.12 in 10.0 mi South 8.1 mph - N/A   Clear
9:51 PM 72.0 °F 66.0 °F 81% 30.14 in 10.0 mi South 4.6 mph - N/A   Scattered Clouds
10:51 PM 72.0 °F 66.0 °F 81% 30.15 in 10.0 mi South 5.8 mph - N/A   Mostly Cloudy
11:51 PM 72.0 °F 64.9 °F 78% 30.15 in 10.0 mi South 6.9 mph - N/A   Clear